SAS1817 ESSA-ENBR

Flight info

Callsign SAS1817
Flight time 1h 9m
Altitude 36000
Route ARS4K ARS N623 IBGAX DCT EBURI N623 ESEBA DCT ATLAP DCT PESUR PESUR3N
Aircraft A320/M-SDE3FGHIRWY/LB1

Departure

Time 2026-05-06 16:12
Airport Stockholm-Arlanda Airport (ESSA)

Arrival

Time 2026-05-06 17:22
Airport Bergen Airport, Flesland (ENBR)
Time Latitude Longitude Altitude Speed Heading
2026-05-06 15:55 59.65283 17.93174 110 ft 0 kts 251°
2026-05-06 15:58 59.65284 17.93174 110 ft 0 kts 251°
2026-05-06 16:01 59.65284 17.93175 112 ft 0 kts 251°
2026-05-06 16:04 59.65286 17.93191 110 ft 2 kts 251°
2026-05-06 16:04 59.65292 17.93223 110 ft 2 kts 251°
2026-05-06 16:05 59.65297 17.93255 110 ft 2 kts 251°
2026-05-06 16:05 59.65299 17.93288 110 ft 2 kts 313°
2026-05-06 16:05 59.65293 17.93299 110 ft 0 kts 342°
2026-05-06 16:08 59.65296 17.93298 112 ft 3 kts 346°
2026-05-06 16:08 59.65380 17.93268 112 ft 20 kts 345°
2026-05-06 16:08 59.65487 17.93177 112 ft 15 kts 324°
2026-05-06 16:08 59.65491 17.92993 112 ft 17 kts 251°
2026-05-06 16:09 59.65438 17.92727 111 ft 20 kts 245°
2026-05-06 16:09 59.65503 17.92566 106 ft 18 kts 335°
2026-05-06 16:09 59.65628 17.92482 103 ft 22 kts 346°
2026-05-06 16:09 59.65797 17.92435 105 ft 25 kts
2026-05-06 16:10 59.65976 17.92499 108 ft 29 kts 11°
2026-05-06 16:10 59.66173 17.92571 113 ft 28 kts 10°
2026-05-06 16:10 59.66363 17.92637 118 ft 27 kts 10°
2026-05-06 16:10 59.66535 17.92608 123 ft 22 kts 340°
2026-05-06 16:11 59.66618 17.92437 122 ft 17 kts 260°
2026-05-06 16:11 59.66517 17.92332 123 ft 18 kts 191°
2026-05-06 16:11 59.66271 17.92244 118 ft 67 kts 190°
2026-05-06 16:11 59.65605 17.92002 108 ft 126 kts 190°
2026-05-06 16:12 59.64598 17.91621 219 ft 159 kts 191°
2026-05-06 16:12 59.63566 17.91163 1006 ft 150 kts 193°
2026-05-06 16:12 59.62516 17.90741 1548 ft 161 kts 188°
2026-05-06 16:12 59.61395 17.90029 1834 ft 187 kts 216°
2026-05-06 16:13 59.60556 17.87854 2182 ft 212 kts 236°
2026-05-06 16:13 59.59778 17.85296 2861 ft 220 kts 238°
2026-05-06 16:13 59.58987 17.82686 3677 ft 223 kts 239°
2026-05-06 16:13 59.58202 17.79976 4329 ft 237 kts 242°
2026-05-06 16:14 59.57408 17.76958 4864 ft 254 kts 243°
2026-05-06 16:14 59.56790 17.73663 5677 ft 261 kts 260°
2026-05-06 16:14 59.56768 17.70063 6537 ft 265 kts 272°
2026-05-06 16:14 59.56869 17.66430 7400 ft 267 kts 272°
2026-05-06 16:15 59.56956 17.62765 8302 ft 268 kts 272°
2026-05-06 16:15 59.57035 17.59089 9206 ft 269 kts 272°
2026-05-06 16:15 59.57110 17.55393 10067 ft 270 kts 272°
2026-05-06 16:15 59.57185 17.51586 10485 ft 289 kts 273°
2026-05-06 16:16 59.57267 17.47464 10730 ft 310 kts 272°
2026-05-06 16:16 59.57352 17.43087 10976 ft 330 kts 272°
2026-05-06 16:16 59.57444 17.38424 11239 ft 347 kts 272°
2026-05-06 16:16 59.57535 17.33619 11834 ft 353 kts 272°
2026-05-06 16:17 59.57621 17.28751 12503 ft 357 kts 271°
2026-05-06 16:17 59.57707 17.23842 13172 ft 360 kts 271°
2026-05-06 16:17 59.57793 17.18879 13832 ft 363 kts 271°
2026-05-06 16:17 59.57881 17.13889 14453 ft 364 kts 271°
2026-05-06 16:18 59.57966 17.08890 15117 ft 364 kts 271°
2026-05-06 16:18 59.58049 17.03893 15723 ft 366 kts 271°
2026-05-06 16:18 59.58104 17.00566 16110 ft 367 kts 270°
2026-05-06 16:18 59.58184 16.95521 16690 ft 369 kts 270°
2026-05-06 16:19 59.58263 16.90455 17256 ft 371 kts 270°
2026-05-06 16:19 59.58340 16.85352 17806 ft 373 kts 270°
2026-05-06 16:19 59.58436 16.78558 18496 ft 375 kts 270°
2026-05-06 16:19 59.58503 16.73403 18967 ft 377 kts 269°
2026-05-06 16:20 59.58549 16.69902 19282 ft 378 kts 269°
2026-05-06 16:20 59.58678 16.64712 19749 ft 381 kts 275°
2026-05-06 16:20 59.59166 16.59539 20207 ft 384 kts 278°
2026-05-06 16:20 59.59698 16.54356 20665 ft 386 kts 278°
2026-05-06 16:21 59.60231 16.49160 21145 ft 387 kts 278°
2026-05-06 16:21 59.60765 16.43949 21614 ft 388 kts 277°
2026-05-06 16:21 59.61292 16.38712 22046 ft 389 kts 277°
2026-05-06 16:21 59.61812 16.33457 22457 ft 391 kts 277°
2026-05-06 16:22 59.62329 16.28177 22864 ft 392 kts 277°
2026-05-06 16:22 59.62848 16.22867 23271 ft 394 kts 276°
2026-05-06 16:22 59.63400 16.17547 23643 ft 397 kts 277°
2026-05-06 16:22 59.63997 16.12286 23955 ft 399 kts 278°
2026-05-06 16:23 59.64639 16.06859 24277 ft 401 kts 278°
2026-05-06 16:23 59.65272 16.01565 24574 ft 402 kts 278°
2026-05-06 16:23 59.65911 15.96172 24864 ft 403 kts 278°
2026-05-06 16:23 59.66541 15.90757 25161 ft 405 kts 277°
2026-05-06 16:24 59.67161 15.85318 25480 ft 406 kts 277°
2026-05-06 16:24 59.67776 15.79858 25774 ft 407 kts 276°
2026-05-06 16:24 59.68386 15.74383 26067 ft 409 kts 276°
2026-05-06 16:24 59.68996 15.68879 26336 ft 410 kts 276°
2026-05-06 16:25 59.69607 15.63351 26612 ft 411 kts 276°
2026-05-06 16:25 59.70216 15.57816 26868 ft 413 kts 276°
2026-05-06 16:25 59.70830 15.52253 27119 ft 414 kts 276°
2026-05-06 16:25 59.71443 15.46664 27373 ft 416 kts 276°
2026-05-06 16:26 59.72056 15.41062 27626 ft 417 kts 276°
2026-05-06 16:26 59.72668 15.35450 27932 ft 417 kts 276°
2026-05-06 16:26 59.73279 15.29846 28311 ft 415 kts 275°
2026-05-06 16:26 59.73885 15.24261 28679 ft 414 kts 275°
2026-05-06 16:27 59.74482 15.18695 29120 ft 412 kts 275°
2026-05-06 16:27 59.75073 15.13152 29533 ft 410 kts 275°
2026-05-06 16:27 59.75662 15.07632 29908 ft 409 kts 275°
2026-05-06 16:27 59.76248 15.02126 30228 ft 408 kts 275°
2026-05-06 16:28 59.76830 14.96620 30510 ft 407 kts 275°
2026-05-06 16:28 59.77407 14.91127 30773 ft 407 kts 275°
2026-05-06 16:28 59.77980 14.85629 31039 ft 407 kts 275°
2026-05-06 16:28 59.78552 14.80131 31316 ft 407 kts 275°
2026-05-06 16:29 59.79121 14.74635 31579 ft 406 kts 275°
2026-05-06 16:29 59.79689 14.69136 31833 ft 406 kts 275°
2026-05-06 16:29 59.80253 14.63645 32096 ft 406 kts 275°
2026-05-06 16:29 59.80817 14.58141 32429 ft 406 kts 275°
2026-05-06 16:30 59.81376 14.52664 32793 ft 404 kts 275°
2026-05-06 16:30 59.81745 14.49053 33010 ft 402 kts 275°
2026-05-06 16:30 59.82488 14.41773 33413 ft 401 kts 275°
2026-05-06 16:30 59.83038 14.36340 33686 ft 401 kts 275°
2026-05-06 16:31 59.83584 14.30907 33959 ft 400 kts 275°
2026-05-06 16:31 59.84127 14.25472 34169 ft 401 kts 275°
2026-05-06 16:31 59.84664 14.20036 34355 ft 401 kts 275°
2026-05-06 16:31 59.85198 14.14578 34537 ft 402 kts 275°
2026-05-06 16:32 59.85735 14.09101 34719 ft 404 kts 275°
2026-05-06 16:32 59.86267 14.03691 34890 ft 405 kts 275°
2026-05-06 16:32 59.86807 13.98189 35067 ft 406 kts 275°
2026-05-06 16:32 59.87346 13.92679 35250 ft 407 kts 275°
2026-05-06 16:33 59.87887 13.87136 35398 ft 408 kts 275°
2026-05-06 16:33 59.88424 13.81579 35549 ft 409 kts 275°
2026-05-06 16:33 59.88965 13.75936 35710 ft 410 kts 276°
2026-05-06 16:34 59.90023 13.64822 35920 ft 412 kts 276°
2026-05-06 16:34 59.91086 13.53587 35920 ft 413 kts 276°
2026-05-06 16:35 59.92141 13.42347 35921 ft 413 kts 275°
2026-05-06 16:35 59.93181 13.31094 35941 ft 413 kts 275°
2026-05-06 16:36 59.94212 13.19793 35911 ft 415 kts 276°
2026-05-06 16:36 59.95238 13.08438 35920 ft 416 kts 276°
2026-05-06 16:37 59.96247 12.97074 35925 ft 416 kts 275°
2026-05-06 16:37 59.97070 12.85660 35925 ft 415 kts 273°
2026-05-06 16:38 59.97766 12.74223 35928 ft 415 kts 272°
2026-05-06 16:38 59.98473 12.62781 35918 ft 415 kts 273°
2026-05-06 16:39 59.99227 12.51350 35930 ft 415 kts 273°
2026-05-06 16:39 59.99985 12.39910 35922 ft 415 kts 273°
2026-05-06 16:40 60.00723 12.28543 35933 ft 415 kts 273°
2026-05-06 16:40 60.01438 12.17093 35933 ft 415 kts 273°
2026-05-06 16:41 60.02144 12.05636 35922 ft 415 kts 273°
2026-05-06 16:41 60.02841 11.94180 35956 ft 415 kts 273°
2026-05-06 16:42 60.03534 11.82697 35945 ft 416 kts 273°
2026-05-06 16:42 60.04222 11.71210 35937 ft 416 kts 273°
2026-05-06 16:43 60.04892 11.59717 35934 ft 416 kts 273°
2026-05-06 16:43 60.05555 11.48215 35932 ft 416 kts 273°
2026-05-06 16:44 60.06207 11.36710 35929 ft 416 kts 272°
2026-05-06 16:44 60.06847 11.25189 35951 ft 416 kts 273°
2026-05-06 16:45 60.07481 11.13667 35945 ft 416 kts 273°
2026-05-06 16:45 60.08107 11.02158 35939 ft 416 kts 273°
2026-05-06 16:46 60.08717 10.90646 35934 ft 416 kts 272°
2026-05-06 16:46 60.09317 10.79125 35931 ft 416 kts 272°
2026-05-06 16:47 60.09910 10.67607 35950 ft 416 kts 272°
2026-05-06 16:47 60.10489 10.56065 35934 ft 416 kts 272°
2026-05-06 16:48 60.11055 10.44512 35926 ft 417 kts 272°
2026-05-06 16:48 60.11622 10.32942 35923 ft 417 kts 272°
2026-05-06 16:49 60.12181 10.21365 35922 ft 417 kts 272°
2026-05-06 16:49 60.12722 10.09820 35193 ft 414 kts 272°
2026-05-06 16:49 60.12987 10.04087 34569 ft 412 kts 272°
2026-05-06 16:50 60.13247 9.98456 33994 ft 410 kts 272°
2026-05-06 16:50 60.13506 9.92693 33236 ft 409 kts 271°
2026-05-06 16:50 60.13751 9.87101 32522 ft 406 kts 271°
2026-05-06 16:50 60.14001 9.81404 32035 ft 402 kts 270°
2026-05-06 16:51 60.14247 9.75829 31886 ft 401 kts 270°
2026-05-06 16:51 60.14733 9.64766 31920 ft 401 kts 270°
2026-05-06 16:52 60.15203 9.53613 31928 ft 401 kts 270°
2026-05-06 16:52 60.15673 9.42468 31928 ft 401 kts 270°
2026-05-06 16:53 60.16135 9.31298 31943 ft 402 kts 270°
2026-05-06 16:53 60.16585 9.20101 31915 ft 401 kts 270°
2026-05-06 16:53 60.16804 9.14545 31245 ft 399 kts 270°
2026-05-06 16:54 60.17019 9.09007 30492 ft 396 kts 269°
2026-05-06 16:54 60.17232 9.03523 29933 ft 389 kts 269°
2026-05-06 16:54 60.17439 8.98174 29378 ft 380 kts 269°
2026-05-06 16:54 60.17639 8.92939 28683 ft 373 kts 269°
2026-05-06 16:55 60.17833 8.87785 28008 ft 368 kts 269°
2026-05-06 16:55 60.18020 8.82701 27338 ft 362 kts 269°
2026-05-06 16:55 60.18200 8.77679 26674 ft 358 kts 270°
2026-05-06 16:55 60.18374 8.72724 26050 ft 354 kts 270°
2026-05-06 16:56 60.18545 8.67819 25466 ft 350 kts 270°
2026-05-06 16:56 60.18713 8.62979 24887 ft 345 kts 270°
2026-05-06 16:56 60.18881 8.58202 24319 ft 341 kts 271°
2026-05-06 16:56 60.19047 8.53480 23768 ft 337 kts 271°
2026-05-06 16:57 60.19210 8.48801 23125 ft 333 kts 271°
2026-05-06 16:57 60.19369 8.44179 22453 ft 330 kts 271°
2026-05-06 16:57 60.19524 8.39583 21709 ft 329 kts 271°
2026-05-06 16:57 60.19674 8.34995 20946 ft 330 kts 271°
2026-05-06 16:58 60.19821 8.30393 20291 ft 330 kts 271°
2026-05-06 16:58 60.19969 8.25803 19685 ft 328 kts 271°
2026-05-06 16:58 60.20113 8.21229 19108 ft 327 kts 271°
2026-05-06 16:58 60.20256 8.16674 18540 ft 326 kts 271°
2026-05-06 16:59 60.20400 8.12140 17937 ft 324 kts 271°
2026-05-06 16:59 60.20543 8.07621 17345 ft 323 kts 272°
2026-05-06 16:59 60.20683 8.03128 16795 ft 322 kts 272°
2026-05-06 16:59 60.20821 7.98652 16263 ft 319 kts 272°
2026-05-06 17:00 60.20957 7.94210 15740 ft 318 kts 272°
2026-05-06 17:00 60.21090 7.89786 15203 ft 316 kts 272°
2026-05-06 17:00 60.21220 7.85377 14669 ft 316 kts 272°
2026-05-06 17:00 60.21349 7.80976 14126 ft 315 kts 273°
2026-05-06 17:01 60.21474 7.76574 13584 ft 315 kts 273°
2026-05-06 17:01 60.21598 7.72185 12978 ft 315 kts 273°
2026-05-06 17:01 60.21721 7.67796 12345 ft 315 kts 273°
2026-05-06 17:01 60.21842 7.63444 11718 ft 316 kts 273°
2026-05-06 17:02 60.21960 7.59031 11087 ft 317 kts 273°
2026-05-06 17:02 60.22077 7.54601 10468 ft 318 kts 273°
2026-05-06 17:02 60.22197 7.50148 10084 ft 320 kts 274°
2026-05-06 17:02 60.22321 7.45656 10000 ft 323 kts 274°
2026-05-06 17:03 60.22444 7.41136 10014 ft 324 kts 274°
2026-05-06 17:03 60.22563 7.36606 10016 ft 324 kts 273°
2026-05-06 17:03 60.22678 7.32076 10016 ft 323 kts 274°
2026-05-06 17:03 60.22806 7.27573 10015 ft 322 kts 277°
2026-05-06 17:04 60.23330 7.23196 10017 ft 322 kts 287°
2026-05-06 17:04 60.23981 7.18882 10019 ft 322 kts 287°
2026-05-06 17:04 60.24636 7.14572 10018 ft 322 kts 287°
2026-05-06 17:04 60.25291 7.10260 10019 ft 322 kts 287°
2026-05-06 17:05 60.25943 7.05947 10020 ft 322 kts 287°
2026-05-06 17:05 60.26595 7.01630 10019 ft 322 kts 287°
2026-05-06 17:05 60.27243 6.97314 10019 ft 322 kts 287°
2026-05-06 17:05 60.27890 6.92989 10019 ft 322 kts 287°
2026-05-06 17:06 60.28534 6.88669 10019 ft 322 kts 286°
2026-05-06 17:06 60.29180 6.84331 10018 ft 323 kts 286°
2026-05-06 17:06 60.29825 6.79990 10017 ft 323 kts 286°
2026-05-06 17:06 60.30470 6.75644 10019 ft 324 kts 286°
2026-05-06 17:07 60.31111 6.71290 10022 ft 324 kts 286°
2026-05-06 17:07 60.31741 6.66994 10019 ft 324 kts 286°
2026-05-06 17:07 60.32381 6.62631 10025 ft 324 kts 286°
2026-05-06 17:07 60.33013 6.58266 10025 ft 325 kts 286°
2026-05-06 17:08 60.33640 6.53885 10026 ft 325 kts 286°
2026-05-06 17:08 60.34264 6.49501 10025 ft 325 kts 285°
2026-05-06 17:08 60.34884 6.45120 10024 ft 325 kts 285°
2026-05-06 17:08 60.35502 6.40732 10024 ft 325 kts 285°
2026-05-06 17:09 60.36118 6.36357 10021 ft 322 kts 285°
2026-05-06 17:09 60.36732 6.31993 10023 ft 324 kts 285°
2026-05-06 17:09 60.37140 6.29092 10018 ft 324 kts 285°
2026-05-06 17:09 60.37757 6.24707 10017 ft 324 kts 285°
2026-05-06 17:10 60.38371 6.20315 10005 ft 324 kts 285°
2026-05-06 17:10 60.38975 6.15961 9516 ft 320 kts 285°
2026-05-06 17:10 60.39573 6.11646 8935 ft 318 kts 285°
2026-05-06 17:10 60.40167 6.07356 8372 ft 315 kts 285°
2026-05-06 17:11 60.40756 6.03097 7824 ft 313 kts 285°
2026-05-06 17:11 60.41338 5.98877 7372 ft 309 kts 285°
2026-05-06 17:11 60.41893 5.94847 7247 ft 286 kts 285°
2026-05-06 17:11 60.42414 5.91056 7118 ft 273 kts 285°
2026-05-06 17:12 60.42911 5.87427 6986 ft 262 kts 285°
2026-05-06 17:12 60.43391 5.83923 6721 ft 256 kts 285°
2026-05-06 17:12 60.43863 5.80465 6351 ft 254 kts 285°
2026-05-06 17:12 60.44328 5.77033 6000 ft 251 kts 285°
2026-05-06 17:13 60.44790 5.73615 5982 ft 253 kts 285°
2026-05-06 17:13 60.45252 5.70180 5818 ft 251 kts 285°
2026-05-06 17:13 60.45707 5.66768 5375 ft 251 kts 285°
2026-05-06 17:13 60.46159 5.63356 5025 ft 249 kts 284°
2026-05-06 17:14 60.46604 5.59974 4934 ft 249 kts 284°
2026-05-06 17:14 60.47051 5.56591 4503 ft 248 kts 285°
2026-05-06 17:14 60.47500 5.53217 4079 ft 248 kts 285°
2026-05-06 17:14 60.47948 5.49851 3987 ft 248 kts 285°
2026-05-06 17:15 60.48397 5.46455 3991 ft 249 kts 284°
2026-05-06 17:15 60.48831 5.43149 3989 ft 234 kts 284°
2026-05-06 17:15 60.49211 5.40059 3995 ft 220 kts 279°
2026-05-06 17:15 60.49362 5.37005 3711 ft 216 kts 274°
2026-05-06 17:16 60.49447 5.33964 3393 ft 215 kts 273°
2026-05-06 17:16 60.49524 5.30964 3106 ft 212 kts 273°
2026-05-06 17:16 60.49515 5.28007 2996 ft 206 kts 265°
2026-05-06 17:16 60.49357 5.25207 3001 ft 196 kts 263°
2026-05-06 17:17 60.49181 5.22526 2999 ft 194 kts 263°
2026-05-06 17:17 60.48914 5.19820 2999 ft 194 kts 246°
2026-05-06 17:17 60.48100 5.17696 3003 ft 197 kts 221°
2026-05-06 17:17 60.46878 5.16424 3004 ft 202 kts 196°
2026-05-06 17:18 60.45486 5.16350 2998 ft 198 kts 173°
2026-05-06 17:18 60.44182 5.16800 2976 ft 183 kts 174°
2026-05-06 17:18 60.42944 5.17223 2780 ft 179 kts 174°
2026-05-06 17:18 60.41723 5.17636 2547 ft 176 kts 174°
2026-05-06 17:19 60.40545 5.18036 2310 ft 168 kts 174°
2026-05-06 17:19 60.39399 5.18422 2075 ft 166 kts 175°
2026-05-06 17:19 60.38272 5.18804 1839 ft 162 kts 175°
2026-05-06 17:19 60.37191 5.19170 1653 ft 153 kts 175°
2026-05-06 17:20 60.36151 5.19520 1419 ft 150 kts 175°
2026-05-06 17:20 60.35117 5.19866 1197 ft 152 kts 174°
2026-05-06 17:20 60.34077 5.20221 945 ft 151 kts 174°
2026-05-06 17:20 60.33047 5.20579 719 ft 149 kts 173°
2026-05-06 17:21 60.32048 5.20900 534 ft 144 kts 171°
2026-05-06 17:21 60.31074 5.21239 335 ft 141 kts 170°
2026-05-06 17:21 60.30111 5.21561 171 ft 139 kts 170°
2026-05-06 17:21 60.29271 5.21841 156 ft 91 kts 170°
2026-05-06 17:22 60.28956 5.21948 162 ft 17 kts 169°
2026-05-06 17:22 60.28914 5.22109 159 ft 12 kts 83°
2026-05-06 17:22 60.28917 5.22151 159 ft 3 kts 81°
2026-05-06 17:22 60.28920 5.22195 159 ft 1 kts 81°
2026-05-06 17:23 60.28920 5.22196 159 ft 0 kts 81°
2026-05-06 17:23 60.28920 5.22198 159 ft 0 kts 81°
2026-05-06 17:24 60.28925 5.22259 161 ft 13 kts 80°
2026-05-06 17:24 60.28896 5.22403 167 ft 12 kts 156°
2026-05-06 17:24 60.28832 5.22468 168 ft 8 kts 85°
2026-05-06 17:24 60.28851 5.22543 173 ft 8 kts 59°
2026-05-06 17:25 60.28859 5.22567 173 ft 0 kts 59°